Вернуться в каталог

STARLINK-35441

АктивенСвязьVLEO
NORAD 65869·PAYLOAD·🇺🇸 United States

Запущен Oct 3, 2025 с Vandenberg Space Force Base

Loading…

Ближайшие Пролёты (ближайшие 24 часа)

TLE

СвежийSource: CelesTrak SupGP

Эпоха: Sep 14, 2026, 21:13 UTC

1 65869C 25223R   26257.88451389 -.00055551  00000+0 -16413-2 0  2572
2 65869  53.1574 131.9616 0001346  87.6506 160.9673 15.34417352    12

Отслеживайте STARLINK-35441 в реальном времени с AllMySat

Download on the App Store